Terminal Aerodrome Forecast
Issued by NWS

Home | Current Version | Previous Version | Text Only | Print | Product List | Glossary On
Versions: 1 2 3 4 5 6 7 8 9 10 11 12 13 14 15 16 17
085
FTUS45 KVEF 221726
TAFHND
TAF
KHND 221726Z 2218/2318 22018G28KT P6SM FEW090
     FM230100 24011KT P6SM SCT090
     FM230300 31013G23KT P6SM BKN090
     FM230800 32010KT P6SM SKC=

USA.gov is the U.S. government's official web portal to all federal, state and local government web resources and services.